Flag for Germany Weather past 2 weeks in Lampertheim, Hesse, Germany

50 °F

Light rain. Mostly cloudy.

Feels Like: 46 °F
Forecast: 51 / 54 °F
Wind: 10 mph from Southwest

Location: Baden Wurttemberg - Neuostheim

Current Time: Nov 30, 2015 at 12:36:15 PM

Latest Report: Nov 30, 2015 at 11:50 AM

Visibility: N/A

Pressure: 30.18 "Hg

Humidity: 94%

Dew point: 48 °F

Location of LampertheimLocation

Historic Weather in Lampertheim — Graph


Lampertheim temperature yesterday

Maximum temperature yesterday: 50 °F (at 7:20 PM)
Minimum temperature yesterday: 41 °F (at 7:20 AM)
Average temperature yesterday: 46 °F

Past Weeks' High & Low Weather Summary

High61 °F (Nov 18, 5:50 AM)100% (Nov 20, 3:20 PM)30.30 "Hg (Nov 20, 3:20 PM)
Low27 °F (Nov 27, 6:20 AM)51% (Nov 16, 10:20 AM)29.42 "Hg (Nov 21, 11:50 AM)
Average45 °F82%29.97 "Hg
* Reported Nov 15 11:20 AM — Nov 30 11:20 AM, Lampertheim, Weather by CustomWeather, © 2015

Note: Actual official high and low records may vary slightly from our data, if they occured in-between our weather recording intervals... More about our weather records


Lampertheim weather history for previous 24 hours

Time TempWeatherWind HumidityBarometerVisibility
11:20 AM
Mon, Nov 30
50 °FLight rain. Partly sunny.10 mph94%30.21 "HgN/A
10:50 AM50 °FLight rain. Overcast.8 mph88%30.21 "HgN/A
10:20 AM50 °FLight rain. Partly sunny.12 mph88%30.21 "HgN/A
9:50 AM52 °FLight rain. Partly sunny.10 mph77%30.21 "HgN/A
9:20 AM54 °FPartly sunny.13 mph72%30.18 "HgN/A
8:50 AM52 °FPartly sunny.12 mph77%30.18 "HgN/A
7:50 AM52 °FPassing clouds.10 mph77%30.15 "HgN/A
7:20 AM52 °FPassing clouds.12 mph77%30.15 "HgN/A
6:50 AM52 °FPassing clouds.12 mph77%30.12 "HgN/A
6:20 AM52 °FPassing clouds.14 mph77%30.12 "HgN/A
5:50 AM52 °FPassing clouds.12 mph77%30.12 "HgN/A
7:50 PM
Sun, Nov 29
50 °FMostly cloudy.14 mph82%30.04 "HgN/A
7:20 PM50 °FLight rain. Overcast.15 mph82%30.04 "HgN/A
6:50 PM48 °FLight rain. Mostly cloudy.13 mph87%30.04 "HgN/A
6:20 PM48 °FLight rain. Passing clouds.13 mph94%30.04 "HgN/A
5:50 PM48 °FLight rain. Passing clouds.15 mph94%30.04 "HgN/A
5:20 PM48 °FLight rain. Passing clouds.15 mph94%30.04 "HgN/A
4:50 PM48 °FLight rain. Passing clouds.15 mph94%30.01 "HgN/A
4:20 PM48 °FLight rain. Low clouds.15 mph87%30.01 "HgN/A
3:50 PM46 °FLight rain. Broken clouds.16 mph93%30.04 "HgN/A
3:20 PM46 °FLight rain. Partly sunny.16 mph93%30.01 "HgN/A
2:50 PM48 °FSprinkles. Partly sunny.15 mph87%30.01 "HgN/A
2:20 PM48 °FScattered showers. Partly sunny.12 mph87%30.01 "HgN/A
1:50 PM48 °FBroken clouds.13 mph82%30.01 "HgN/A
1:20 PM46 °FScattered showers. Partly sunny.10 mph87%30.01 "HgN/A
12:50 PM46 °FSprinkles. Partly sunny.14 mph87%30.01 "HgN/A
12:20 PM46 °FOvercast.12 mph82%30.04 "HgN/A
Weather by CustomWeather, © 2015

See weather overviewHow to use our weather pages